LA1HSA-13 Weather Reports


Display with metric or nautical units.
time (UTC)temp
F
wind
direction
speed
MPH
gust
MPH
rain 1hr
in
rain 24hr
in
rain mn
in
humidity
%
barometer
mb
20260505083003 44 84 2.0 8.0 0.00 0.02 0.00 42 1009.6
20260505082003 45 48 2.0 7.0 0.00 0.02 0.00 46 1009.9
20260505081003 43 36 4.0 8.0 0.00 0.02 0.00 42 1009.8
20260505080003 45 55 4.0 9.0 0.00 0.02 0.00 46 1009.5
20260505075003 43 72 4.0 7.0 0.00 0.02 0.00 45 1009.5
20260505074003 43 35 4.0 7.0 0.00 0.02 0.00 46 1009.4
20260505073003 43 55 2.0 8.0 0.00 0.02 0.00 49 1009.6
20260505072003 42 48 2.0 8.0 0.00 0.02 0.00 48 1009.7
20260505071003 42 40 2.0 6.0 0.00 0.02 0.00 49 1009.3
20260505070003 42 74 3.0 9.0 0.00 0.02 0.00 50 1009.4
20260505065003 41 71 1.0 4.0 0.00 0.02 0.00 49 1009.3
20260505064003 40 74 3.0 7.0 0.00 0.02 0.00 52 1009.0
20260505063003 40 92 2.0 6.0 0.00 0.02 0.00 53 1009.3
20260505062003 40 70 2.0 4.0 0.00 0.02 0.00 54 1009.4
20260505061003 39 67 1.0 4.0 0.00 0.02 0.00 56 1009.3
20260505060003 38 80 2.0 4.0 0.00 0.02 0.00 56 1009.1
20260505055003 37 0 0.0 4.0 0.00 0.02 0.00 61 1009.2
20260505054003 37 38 2.0 4.0 0.00 0.02 0.00 61 1009.1
20260505053003 36 51 2.0 2.0 0.00 0.02 0.00 60 1009.3
20260505052003 35 66 1.0 2.0 0.00 0.02 0.00 62 1009.1
20260505051003 35 0 0.0 2.0 0.00 0.02 0.00 65 1009.2
20260505041003 30 0 0.0 4.0 0.00 0.02 0.00 77 1008.8
20260505040004 31 0 0.0 2.0 0.00 0.02 0.00 74 1008.6
20260505035003 32 0 0.0 2.0 0.00 0.02 0.00 70 1008.5
20260505034003 32 0 0.0 4.0 0.00 0.02 0.00 72 1008.3
20260505033003 31 112 1.0 2.0 0.00 0.02 0.00 73 1008.2
20260505032003 31 0 0.0 2.0 0.00 0.02 0.00 75 1008.1
20260505031003 31 0 0.0 2.0 0.00 0.02 0.00 73 1008.3
20260505030003 30 0 0.0 2.0 0.00 0.02 0.00 75 1008.2
20260505025004 30 176 1.0 2.0 0.00 0.02 0.00 77 1007.9
20260505024003 31 0 0.0 0.0 0.00 0.02 0.00 74 1007.8
20260505023003 31 0 0.0 0.0 0.00 0.02 0.00 72 1007.8
20260505022003 32 0 0.0 0.0 0.00 0.02 0.00 71 1007.9
20260505021003 32 0 0.0 2.0 0.00 0.02 0.00 69 1007.6
20260505020003 33 0 0.0 2.0 0.00 0.02 0.00 67 1007.7
20260505015003 34 114 1.0 4.0 0.00 0.02 0.00 65 1007.3
20260505014003 33 0 0.0 2.0 0.00 0.02 0.00 68 1007.6
20260505013003 34 0 0.0 4.0 0.00 0.02 0.00 66 1007.4
20260505012003 35 66 2.0 6.0 0.00 0.02 0.00 65 1007.3
20260505011003 35 71 2.0 9.0 0.00 0.02 0.00 65 1007.1
20260505010003 35 43 3.0 11.0 0.00 0.02 0.00 64 1006.9
20260505005004 36 37 6.0 11.0 0.00 0.02 0.00 63 1006.8
20260505004003 36 42 5.0 11.0 0.00 0.02 0.00 64 1006.9
20260505003003 36 51 3.0 9.0 0.00 0.02 0.00 66 1006.8
20260505002003 35 51 2.0 4.0 0.00 0.02 0.00 68 1006.8
20260505001003 36 66 2.0 6.0 0.00 0.02 0.00 67 1006.9
20260505000003 36 50 4.0 7.0 0.00 0.02 0.00 67 1006.6
20260504235003 37 53 3.0 7.0 0.00 0.02 0.00 68 1006.8
20260504234003 37 50 4.0 8.0 0.00 0.02 0.00 69 1006.9
20260504233003 37 39 2.0 8.0 0.00 0.02 0.00 71 1006.8
20260504232003 37 14 4.0 7.0 0.00 0.02 0.00 78 1006.7
20260504231003 37 4 1.0 4.0 0.00 0.02 0.00 79 1006.8
20260504230004 36 8 2.0 4.0 0.00 0.02 0.00 81 1006.7
20260504225003 36 0 0.0 4.0 0.00 0.02 0.00 84 1006.7
20260504224003 36 0 0.0 0.0 0.00 0.02 0.00 87 1006.7
20260504223004 36 0 0.0 0.0 0.00 0.02 0.00 89 1006.7
20260504222003 37 0 0.0 2.0 0.00 0.02 0.00 87 1006.7
20260504221003 38 0 0.0 2.0 0.00 0.02 0.00 86 1006.5
20260504220022 37 0 0.0 0.0 0.00 0.02 0.00 88 1006.3
20260504215003 38 0 0.0 2.0 0.00 0.02 0.02 85 1006.3
20260504214003 39 0 0.0 6.0 0.00 0.02 0.02 83 1006.2
20260504213003 40 27 2.0 7.0 0.00 0.02 0.02 82 1006.1
20260504212003 39 48 4.0 8.0 0.00 0.02 0.02 84 1005.9
20260504211003 40 46 4.0 11.0 0.00 0.02 0.02 83 1005.6
20260504210004 40 36 4.0 7.0 0.00 0.02 0.02 83 1005.8
20260504205003 40 43 4.0 9.0 0.00 0.02 0.02 83 1005.8
20260504204003 40 57 3.0 4.0 0.00 0.02 0.02 83 1005.7
20260504203003 40 54 4.0 4.0 0.00 0.02 0.02 83 1005.6
20260504202003 39 66 1.0 4.0 0.00 0.02 0.02 86 1005.3
20260504201004 39 40 2.0 6.0 0.00 0.02 0.02 88 1005.0
20260504200003 40 43 2.0 7.0 0.02 0.02 0.02 88 1005.0
20260504195003 40 52 5.0 11.0 0.02 0.02 0.02 87 1005.0
20260504194003 40 50 5.0 9.0 0.02 0.02 0.02 91 1005.1
20260504193003 40 65 4.0 11.0 0.02 0.02 0.02 92 1004.8
20260504192003 42 46 2.0 7.0 0.02 0.02 0.02 92 1004.4
20260504191003 42 45 4.0 15.0 0.02 0.02 0.02 89 1004.2
20260504190003 50 30 8.0 15.0 0.00 0.00 0.00 60 1003.8
20260504185003 50 21 4.0 15.0 0.00 0.00 0.00 60 1003.0
20260504184003 50 13 7.0 11.0 0.00 0.00 0.00 60 1002.9
20260504183003 51 2 5.0 14.0 0.00 0.00 0.00 60 1002.9
20260504182003 51 355 8.0 17.0 0.00 0.00 0.00 58 1003.1
20260504181003 51 1 6.0 16.0 0.00 0.00 0.00 56 1002.8
20260504180003 52 353 6.0 14.0 0.00 0.00 0.00 54 1002.9
20260504175003 53 11 4.0 15.0 0.00 0.00 0.00 51 1003.1
20260504174003 53 343 6.0 15.0 0.00 0.00 0.00 49 1002.8
20260504173003 54 2 5.0 15.0 0.00 0.00 0.00 49 1003.1
20260504172003 53 19 4.0 9.0 0.00 0.00 0.00 48 1002.8
20260504171003 54 32 4.0 15.0 0.00 0.00 0.00 48 1003.1
20260504151003 58 351 8.0 15.0 0.00 0.00 0.00 39 1003.3
20260504141003 58 39 7.0 13.0 0.00 0.00 0.00 36 1003.7